This is the latest recevied weather packets stored in our database for station/object OE6ATD-13. If no packets are shown the sender has not sent any weather packets the latest 10 day(s).
| Time | Temp. | Humidity | Pressure | Rain* | Wind** | Luminosity | Snow |
|---|---|---|---|---|---|---|---|
| 1777505130 | 7.22° C | 31% | 1026.5 hPa | 0 mm | - | 0 W/m² | - |
| 1777504516 | 7.22° C | 31% | 1026.4 hPa | 0 mm | - | 0 W/m² | - |
| 1777503927 | 7.78° C | 31% | 1026.3 hPa | 0 mm | - | 0 W/m² | - |
| 1777503323 | 7.78° C | 31% | 1026.2 hPa | 0 mm | - | 0 W/m² | - |
| 1777502719 | 8.33° C | 31% | 1026.1 hPa | 0 mm | - | 0 W/m² | - |
| 1777502130 | 7.78° C | 34% | 1026.1 hPa | 0 mm | - | 0 W/m² | - |
| 1777501525 | 7.78° C | 39% | 1026 hPa | 0 mm | - | 0 W/m² | - |
| 1777500921 | 7.22° C | 41% | 1026 hPa | 0 mm | - | 0 W/m² | - |
| 1777500323 | 7.22° C | 42% | 1025.8 hPa | 0 mm | - | 0 W/m² | - |
| 1777499719 | 7.78° C | 40% | 1025.7 hPa | 0 mm | - | 0 W/m² | - |
| 1777499130 | 7.78° C | 40% | 1025.5 hPa | 0 mm | - | 0 W/m² | - |
| 1777498516 | 8.33° C | 40% | 1025.5 hPa | 0 mm | - | 0 W/m² | - |
| 1777497927 | 8.33° C | 40% | 1025.3 hPa | 0 mm | - | 0 W/m² | - |
| 1777497323 | 8.89° C | 42% | 1025.1 hPa | 0 mm | - | 0 W/m² | - |
| 1777496718 | 8.33° C | 51% | 1025.1 hPa | 0 mm | - | 0 W/m² | - |
| 1777496130 | 6.67° C | 78% | 1024.8 hPa | 0 mm | - | 0 W/m² | - |
| 1777495525 | 5.56° C | 84% | 1024.5 hPa | 0 mm | - | 0 W/m² | - |
| 1777494921 | 6.11° C | 84% | 1024.3 hPa | 0 mm | - | 0 W/m² | - |
| 1777494317 | 6.11° C | 85% | 1024.1 hPa | 0 mm | - | 0 W/m² | - |
| 1777493727 | 6.11° C | 86% | 1023.9 hPa | 0 mm | - | 0 W/m² | - |
| 1777493123 | 5.56° C | 85% | 1023.6 hPa | 0 mm | - | 0 W/m² | - |
| 1777492519 | 5.56° C | 83% | 1023.2 hPa | 0 mm | - | 0 W/m² | - |
| 1777491930 | 6.11° C | 83% | 1023 hPa | 0 mm | - | 0 W/m² | - |
| 1777491326 | 6.11° C | 82% | 1023 hPa | 0 mm | - | 0 W/m² | - |
| 1777490721 | 6.67° C | 81% | 1022.8 hPa | 0 mm | - | 0 W/m² | - |
* Rain latest hour (hover to see other rain measurements)
** Current wind speed in m/s (hover to see current wind gust speed)